Regional Weather Roundup
Issued by NWS

Home | Current Version | Previous Version | Text Only | Print | Product List | Glossary On
Versions: 1 2 3 4 5 6 7 8 9 10 11 12 13 14 15 16 17 18 19 20 21 22 23 24 25 26 27 28 29 30 31 32 33 34 35 36 37 38 39 40 41 42 43 44 45 46 47 48 49 50
881
ASUS45 KBOI 032210
RWRID

IDAHO REGIONAL WEATHER ROUNDUP
NATIONAL WEATHER SERVICE BOISE ID
300 PM MST SAT DEC 03 2016

NOTE: "FAIR" INDICATES FEW OR NO CLOUDS BELOW 12000 FEET
WITH NO SIGNIFICANT WEATHER AND/OR OBSTRUCTIONS TO VISIBILITY

IDZ012-014-032300-
SOUTHWEST IDAHO


CITY           SKY/WX    TMP DP  RH WIND       PRES   REMARKS
BOISE          PTSUNNY   44  28  53 W3        30.23F
CALDWELL       MOSUNNY   45  27  49 CALM      30.24F
MOUNTAIN HOME  PTSUNNY   45  27  49 N6        30.24S
$$

IDZ016-017-032300-
SOUTHCENTRAL IDAHO


CITY           SKY/WX    TMP DP  RH WIND       PRES   REMARKS
BURLEY         SUNNY     39  26  59 W18G29    30.18F WCI  30
JEROME         CLOUDY    39  26  59 W13       30.21F WCI  31
TWIN FALLS     CLOUDY    40  26  57 W12       30.21F WCI  33
$$

IDZ019>023-032300-
SOUTHEAST IDAHO


CITY           SKY/WX    TMP DP  RH WIND       PRES   REMARKS
IDAHO FALLS    CLOUDY    31  21  66 S12       30.17F WCI  22
POCATELLO      CLOUDY    33  24  69 S12       30.18F WCI  24
REXBURG        CLOUDY    26  20  77 CALM      30.17F
$$

IDZ006-010-011-018-031-032-032300-
CENTRAL IDAHO MOUNTAINS


CITY           SKY/WX    TMP DP  RH WIND       PRES   REMARKS
MCCALL         CLOUDY    31  23  72 CALM      30.16F
HAILEY         MOSUNNY   34  27  75 SE8       30.12F WCI  27
STANLEY          N/A     33  17  51 VRB5      30.14F WCI  29
SALMON         CLOUDY    36  25  64 S5        30.11S WCI  32
CHALLIS        SUNNY     39  18  42 SE5       30.08S
$$

IDZ002-004-006-007-026-032300-
NORTHERN IDAHO


CITY           SKY/WX    TMP DP  RH WIND       PRES   REMARKS
LEWISTON       CLOUDY    48  33  56 W10       30.18S
LOWELL           N/A     39  35  86 CALM      30.23F
COEUR D`ALENE  PTSUNNY   41  33  73 SW14      30.12S
MULLAN PASS    LGT SNOW  25  22  88 W3        30.00S VSB 1
$$




USA.gov is the U.S. government's official web portal to all federal, state and local government web resources and services.